Weather in Svyato-Pokrovskoye

Ukraine / Donetsk Region     48°49′47″N   38°03′23″E
temp.,
°C
wind,
m/s
gust,
m/s
humid.,
%
clouds,
%
prec.,
mm/h
press.,
hPa
HPBL,
m
30 june, thu
thu3000:00+18ene3758100 0.0 1017126
03:00+16e3456100 0.0 101770
06:00+17ese2557100 0.0 1016137
09:00+23e344195 0.0 1017542
12:00+25ne2236100 0.0 10161904
15:00+26nne3332100 0.0 10152054
18:00+25nne44360 0.0 10151799
21:00+19ne22490 0.0 101515
1 july, fri
fri100:00+18ne115875 0.0 101511
03:00+19nw2256100 0.0 101522
06:00+18nnw2372100 0.0 1015106
09:00+23n56490 0.0 10151234
12:00+25n68350 0.0 10152203
15:00+26n89351 0.0 10142279
18:00+23n88410 0.0 10151991
21:00+18nne612560 0.0 1017465
2 july, sat
sat200:00+13nne33590 0.0 101945
03:00+10nnw22720 0.0 101926
06:00+11n37750 0.0 1020251
09:00+17n69530 0.0 10201016
12:00+22n810410 0.0 10201818
15:00+24n79380 0.0 10191957
18:00+22n78410 0.0 10191931
21:00+16n33610 0.0 102034
3 july, sun
sun300:00+14nw22740 0.0 101917
03:00+13nw33790 0.0 101928
06:00+14nw26720 0.0 1019150
09:00+21nnw45500 0.0 1019781
12:00+26nnw44370 0.0 10181622
15:00+28nw453512 0.0 10162272
18:00+26nw474480 0.0 1016561
21:00+21nw346067 0.0 101649
4 july, mon
mon400:00+19nw227524 0.3 101723
03:00+17nw228863 0.9 101614
06:00+18wnw24875 0.0 1016126
09:00+24nnw346397 0.0 1016626
12:00+28nnw3545100 0.1 10162048
15:00+29nnw4434100 0.1 10152497
18:00+28nnw564099 0.0 10151348
21:00+23ene365367 0.0 1016116